Regional Weather Roundup
Issued by NWS

Home | Current Version | Previous Version | Graphics & Text | Print | Product List | Glossary On
Versions: 1 2 3 4 5 6 7 8 9 10 11 12 13 14 15 16 17 18 19 20 21 22 23 24 25 26 27 28 29 30 31 32 33 34 35 36 37 38 39 40 41 42 43 44 45 46 47 48 49 50
000
ASUS45 KBOU 251407
RWRCO

WEATHER ROUNDUP FOR COLORADO
NATIONAL WEATHER SERVICE DENVER/BOULDER CO
700 AM MST SUN JAN 25 2015

NOTE: "FAIR" INDICATES FEW OR NO CLOUDS BELOW 12000 FEET WITH NO
SIGNIFICANT WEATHER AND/OR OBSTRUCTIONS TO VISIBILITY.

COZ001>005-013-030-031-251500-
...NORTHWEST COLORADO...

CITY           SKY/WX    TMP DP  RH WIND       PRES   REMARKS
CRAIG          PTCLDY    11   8  88 CALM      30.37R
HAYDEN         CLOUDY    25  18  74 CALM      30.35S
MEEKER         PTCLDY    11   6  81 NE5       30.39R WCI   3
MOUNT WERNER   NOT AVBL
STEAMBOAT SPGS CLOUDY    29  22  74 CALM      30.35R
WALDEN         PTCLDY    23  19  86 SE6       30.29R WCI  16
$$

COZ006>008-011-251500-
...WEST CENTRAL VALLEYS...

CITY           SKY/WX    TMP DP  RH WIND       PRES   REMARKS
GRAND JUNCTION PTCLDY    21  16  81 E7        30.38R WCI  12
MONTROSE       PTCLDY    17  12  80 SE5       30.41R WCI  10
EAGLE          PTCLDY    18  16  93 CALM      30.41R
RIFLE          CLOUDY    23  15  71 S3        30.41R
DELTA          PTCLDY    20  15  80 CALM      30.42R
NUCLA          PTCLDY    19  14  79 E3        30.38R
$$

COZ017>023-064>068-251500-
...SOUTHWEST COLORADO...

CITY           SKY/WX    TMP DP  RH WIND       PRES   REMARKS
DURANGO        PTCLDY    16  13  88 NE5       30.30R WCI   9
CORTEZ         CLEAR     18  14  84 NE3       30.31R
PAGOSA SPRINGS PTCLDY    13  12  95 CALM      30.29R
TELLURIDE      PTCLDY    25  15  64 CALM      30.37R
WOLF CREEK PAS NOT AVBL
$$

COZ009-010-012-014-032>034-037-058>063-251500-
...CENTRAL COLORADO...

CITY           SKY/WX    TMP DP  RH WIND       PRES   REMARKS
ASPEN          MOCLDY    26  18  71 S8        30.37S WCI  18
BUENA VISTA    MOCLDY    32  19  58 NW8       30.30R WCI  25
COPPER MTN     CLOUDY    23  18  80 MISG      30.35R
BERTHOUD PASS  NOT AVBL
COTTONWOOD PAS MOCLDY    32  18  55 N6G17     30.31R WCI  26
GUNNISON       MOCLDY    -8 N/A N/A CALM      30.44R
KREMMLING      CLOUDY    34  23  64 SW16G23   30.34S WCI  23
LEADVILLE      CLOUDY    21  16  81 N12       30.33S WCI   9
MONARCH PASS   CLOUDY    16  12  86 MISG      30.43R
SALIDA         MOCLDY    36  19  48 NW12      30.36R
SUNLIGHT       CLOUDY    28  27  93 CALM      30.37
WILKERSON PASS PTCLDY    25  14  63 N9G29     30.30R WCI  15
$$

COZ069>075-251500-
...SAN LUIS VALLEY/SANGRE DE CRISTO MOUNTAINS...

CITY           SKY/WX    TMP DP  RH WIND       PRES   REMARKS
ALAMOSA        MOCLDY     4  -1  80 SW5       30.30R WCI  -5
LA VETA PASS   NOT AVBL
SAGUACHE       MOCLDY    30  19  64 NE10      30.32R WCI  21
$$

COZ035-036-038>040-251500-
...NORTHERN COLORADO FRONT RANGE...

CITY           SKY/WX    TMP DP  RH WIND       PRES   REMARKS
DENVER INTL AP MOCLDY    26  23  88 SE9       30.14R WCI  17
DMNS CITY PARK   N/A     35  23  62 S5        30.14S WCI  30
AURORA         PTCLDY    37  24  58 W8        30.15S
FRONT RANGE AP NOT AVBL
ERIE MUNI ARPT CLEAR     27  24  87 CALM      30.13F
BOULDER MUN AP CLEAR     32  27  80 CALM      30.13S
CENTENNIAL     PTCLDY    33  23  66 SW6       30.15S WCI  28
BROOMFIELD     NOT AVBL
FORT COLLINS   CLEAR     28  21  74 CALM      30.16S
LONGMONT       CLEAR     25  22  87 W5        30.16S WCI  19
$$

COZ041-046-047-076>085-087-088-251500-
...PIKES PEAK/PALMER DIVIDE AND SOUTHERN FOOTHILLS...

CITY           SKY/WX    TMP DP  RH WIND       PRES   REMARKS
COLO. SPRINGS  PTCLDY    30  24  78 SW5       30.20R WCI  25
A. F. ACADEMY  CLEAR     26  19  74 NE5       30.17S WCI  20
ELLICOTT       CLEAR    N/A N/A N/A NW3       30.18R
FALCON         CLEAR     35  22  58 NW10      30.18R WCI  27
FORT CARSON    PTCLDY    30  24  79 SW3       30.18R
LIMON          PTCLDY    28  24  85 W8        30.14S WCI  20
MONUMENT HILL  CLEAR     27  19  74 W9        30.16S WCI  17
TRINIDAD       CLEAR     25  21  85 W10       30.22R WCI  15
$$

COZ042>045-048>051-090-091-251500-
...NORTHEAST COLORADO...

CITY           SKY/WX    TMP DP  RH WIND       PRES   REMARKS
GREELEY ARPT   CLOUDY    28  21  74 N5        30.14S WCI  23
AKRON          CLEAR     30  26  85 NW6       30.11R WCI  24
BURLINGTON     CLEAR     34  26  72 NW18      30.11R WCI  23
WRAY           CLEAR     38  27  64 NW15      30.10R
STERLING       CLEAR     36  32  87 N6        30.12R
HOLYOKE        CLEAR     37  28  70 W15G22    30.08R
FORT MORGAN    CLEAR     29  26  88 W3        30.15S
$$

COZ086-089-092>099-251500-
...SOUTHEAST COLORADO...

CITY           SKY/WX    TMP DP  RH WIND       PRES   REMARKS
PUEBLO         PTCLDY    26  23  88 NW6       30.20R WCI  19
LA JUNTA       CLEAR     31  26  82 W13       30.19R WCI  21
LAMAR          CLEAR     32  26  78 W7        30.16R WCI  26
SPRINGFIELD      N/A     32  26  78 NW14      30.16R WCI  22
$$


USA.gov is the U.S. government's official web portal to all federal, state and local government web resources and services.